Location: Occidental Observatory
(38.4214°N, 122.9202°W)
Time: 18:29:55
(UTC-07:00)

Daily predictions for brighter satellites

Satellite Brightness Start Highest point End
(mag) Time Altitude Azimuth Time Altitude Azimuth Time Altitude Azimuth
Meteor 1-22 Rocket 4.1 19:13:15 10° S 19:18:35 89° E 19:23:53 10° N
Cosmos 1470 4.5 19:20:14 10° ESE 19:22:05 13° E 19:23:55 10° ENE
ATLAS CENTAUR R/B 4.0 19:20:02 10° WNW 19:23:16 23° WSW 19:26:19 10° SSW
Meteor 1-24 Rocket 3.8 19:18:25 10° N 19:24:00 84° W 19:29:23 10° S
Abrixas 2.5 19:21:06 10° WSW 19:24:06 80° NNW 19:27:06 10° NE
In-Cosmos 22 4.4 19:21:32 10° N 19:27:12 53° ENE 19:32:45 10° SSE
ASTRO E2 4.4 19:24:18 10° WSW 19:27:39 25° S 19:31:00 10° SE
Cosmos 1076 Rocket 3.6 19:23:56 10° N 19:28:13 60° E 19:32:31 10° SSE
ATLAS CENTAUR R/B 3.5 19:25:53 10° SW 19:30:20 86° NW 19:44:32 10° NE
NOSS 3-2 (C) 3.9 19:25:01 10° SW 19:31:02 68° NW 19:37:37 10° NNE
Spot 2 Rocket 4.1 19:29:21 10° SE 19:33:51 34° ENE 19:38:21 10° N
Cosmos 1766 Rocket 3.6 19:29:52 10° N 19:34:10 56° E 19:38:25 10° SSE
Cosmos-2242 3.2 19:32:23 10° SSE 19:36:36 49° E 19:40:51 10° NNE
Cosmos 1048 Rocket 4.4 19:32:14 10° S 19:37:08 40° ESE 19:42:01 10° NE
HJ-1C 4.4 19:34:24 10° SE 19:37:14 26° ENE 19:40:06 10° NNE
FREGAT/IRIS 3.1 19:34:50 10° SE 19:37:44 39° ENE 19:40:39 10° N
Cosmos 1346 4.0 19:35:55 10° NNE 19:38:31 27° ENE 19:41:07 10° SE
SJ-6B 2.9 19:34:52 10° SSE 19:38:47 61° ENE 19:42:50 10° N
ATLAS 5 CENTAUR R/B 2.7 19:36:31 10° SW 19:41:10 53° NW 19:46:13 10° NNE
Cosmos 1544 3.5 19:38:47 10° SSE 19:42:18 41° E 19:45:51 10° NNE
Cosmos 1269 Rocket 4.1 19:37:43 10° S 19:42:49 54° ESE 19:47:58 10° NNE
Cosmos 1484 Rocket 3.7 19:41:23 10° S 19:45:09 53° W 19:49:00 10° NNW
SAR-Lupe-4 3.5 19:41:49 10° SSE 19:45:23 89° ENE 19:48:58 10° NNW
Cosmos 1758 3.4 19:50:53 10° S 19:54:58 84° W 19:59:06 10° N
CZ-4B DEB 4.3 19:55:35 19° ENE 19:55:35 19° ENE 19:57:58 10° NNE
OAO 3 Rocket 3.7 19:54:43 10° W 19:59:17 50° S 20:02:28 19° ESE
METEOR-M 4.1 19:54:20 10° SSE 19:59:38 70° ENE 20:04:58 10° N
Cosmos 1408 Rocket 4.2 20:00:36 10° NNW 20:04:52 57° W 20:09:05 10° S
USA 215 3.3 19:58:37 10° NE 20:05:03 58° SE 20:11:27 10° SSW
Cosmos 1842 Rocket 3.7 20:01:36 10° SSE 20:05:45 48° E 20:09:58 10° NNE
Cosmos 1500 Rocket 3.9 20:01:56 10° N 20:06:11 43° E 20:10:05 12° SSE
Helios 1A 2.9 20:08:46 10° SSE 20:12:57 71° ENE 20:17:09 10° N
Cosmos 2034 Rocket 4.4 20:07:44 10° SSW 20:13:58 68° W 20:20:19 10° N
Spot 1 4.3 20:11:09 10° S 20:15:52 80° WSW 20:20:18 10° NNW
CZ-2D R/B 3.9 20:17:14 34° E 20:17:28 35° ENE 20:21:01 10° N
Meteor 1-29 2.8 20:14:21 10° NNE 20:17:51 79° ESE 20:21:20 10° S
FENGYUN 3A 3.8 20:13:59 14° SE 20:18:30 52° ENE 20:23:44 10° N
Meteor 1-21 Rocket 4.4 20:15:48 10° NNW 20:21:19 71° W 20:26:48 10° S
GPS 2-04 Rocket1 2.6 20:20:22 10° WSW 20:23:44 52° S 20:24:12 48° SE
H-2A R/B 3.0 20:27:37 45° ENE 20:27:37 45° ENE 20:31:18 10° N
TELKOM 3 4.4 20:26:43 10° NW 20:28:29 35° NW 20:28:29 35° NW
Resurs 1-3 3.7 20:30:42 10° S 20:35:03 74° WSW 20:39:28 10° NNW
Cosmos 1743 Rocket 4.2 20:31:27 10° NNW 20:35:48 57° W 20:40:05 10° S
ASTEX 1 3.2 20:32:36 10° N 20:37:32 85° E 20:42:24 10° S
ALOS 2.1 20:37:21 24° SSE 20:40:12 87° ENE 20:44:54 10° NNW
ISS -1.4 20:39:34 10° W 20:42:22 26° NNW 20:43:12 23° N
Helios 1B rocket 3.7 20:39:03 10° N 20:42:57 42° WNW 20:46:50 10° SW
Resurs 01 Rocket 2.7 20:39:19 10° S 20:43:33 45° W 20:47:50 10° NNW
Cosmos 1943 Rocket 2.9 20:39:27 10° N 20:44:16 34° NE 20:44:16 34° NE
Cosmos 1627 Rocket 4.4 20:40:19 10° N 20:46:30 63° E 20:49:09 35° SSE
Cosmos 2251 Rocket 3.4 20:41:47 10° S 20:46:55 61° ESE 20:52:05 10° NNE
Cosmos 1733 3.8 20:46:07 10° SSW 20:49:54 55° W 20:53:43 10° N
Cosmos 1943 3.5 20:46:55 10° SSW 20:52:31 67° WNW 20:58:07 10° NNE
Cosmos 2369 Rocket 2.1 20:47:02 10° NNW 20:52:44 89° SW 20:54:43 43° SSE
Cosmos 1470 4.3 20:54:15 10° SW 20:57:49 35° W 21:01:25 10° N
Cosmos 1674 4.2 20:55:29 10° NNW 20:59:03 35° W 21:01:30 17° SSW
Gbstr 26 Del rocket 4.0 20:55:14 10° WSW 20:59:37 51° NNW 21:01:40 32° NNE
Cosmos 1331 Rocket 4.1 20:55:59 10° N 21:00:44 57° NE 21:00:44 57° NE
Cosmos 2263 4.1 20:59:05 10° NNW 21:04:53 83° ENE 21:05:30 71° SE
CENTAUR R/B 3.1 21:00:29 10° SW 21:06:24 54° NW 21:13:04 10° NNE
GP-B 3.3 21:03:33 10° N 21:07:55 68° W 21:07:55 68° W
Cosmos 839 Rocket 4.2 21:07:44 10° NNW 21:15:07 77° WSW 21:16:40 55° S
Cosmos 2151 3.9 21:11:30 10° NNW 21:14:52 47° NW 21:14:52 47° NW
Cosmos 2279 Rocket 3.8 21:16:57 66° S 21:17:53 85° E 21:24:07 10° N
Envisat 4.4 21:26:02 28° N 21:26:02 28° N 21:28:28 10° N
SL-24 R/B - RUBIN 2 4.4 21:21:42 10° NNW 21:28:08 84° NW 21:28:08 84° NW
Meteor 2-1 Rocket 4.5 21:33:00 68° W 21:33:10 68° W 21:39:03 10° N
Cosmos 2026 Rocket 4.5 21:33:21 10° NNW 21:39:18 55° W 21:40:34 47° SW
Cosmos 1655 Rocket 4.3 21:33:21 10° NNW 21:39:28 61° W 21:40:07 58° WSW
USA 215 4.2 21:44:08 22° NNE 21:47:52 42° NNW 21:53:55 10° W
Cosmos 1943 Rocket 4.3 22:23:18 10° NW 22:25:49 23° WNW 22:25:49 23° WNW
CZ-3A R/B 4.4 22:20:09 10° SW 22:48:39 72° WNW 22:48:39 72° WNW
